Location: Goll?ig?dem
(16.6773°N, 80.7332°E)
Time: 07:41:27
(UTC+00:00)

Envisat - Pass Details

Date: 30 September 2021
Orbit: 764 x 766 km, 98.2° (Epoch: 25 October)

Event Time Altitude Azimuth Distance (km) Brightness Sun altitude
Rises 22:41:46 0° 33° (NNE) 3,221 6.7 -26.1°
Reaches altitude 10° 22:44:32 10° 47° (NE) 2,294 6.1 -25.4°
Maximum altitude 22:48:28 23° 99° (E) 1,583 5.4 -24.5°
Drops below altitude 10° 22:52:24 10° 150° (SSE) 2,291 5.8 -23.5°
Sets 22:55:08 0° 165° (SSE) 3,216 6.4 -22.9°
